TimePDT,TemperatureF,Dew PointF,Humidity,Sea Level PressureIn,VisibilityMPH,Wind Direction,Wind SpeedMPH,Gust SpeedMPH,PrecipitationIn,Events,Conditions,WindDirDegrees,DateUTC
12:53 AM,62.1,41.0,46,29.87,10.0,NW,8.1,-,N/A,,Clear,320,2013-07-12 07:53:00
1:53 AM,57.9,43.0,58,29.88,10.0,Calm,Calm,-,N/A,,Clear,0,2013-07-12 08:53:00
2:53 AM,55.9,42.1,60,29.89,10.0,Calm,Calm,-,N/A,,Clear,0,2013-07-12 09:53:00
3:53 AM,52.0,43.0,71,29.90,10.0,Calm,Calm,-,N/A,,Clear,0,2013-07-12 10:53:00
4:53 AM,52.0,44.1,74,29.91,10.0,Calm,Calm,-,N/A,,Clear,0,2013-07-12 11:53:00
5:53 AM,52.0,45.0,77,29.91,10.0,Calm,Calm,-,N/A,,Clear,0,2013-07-12 12:53:00
6:53 AM,60.1,46.9,62,29.91,10.0,Calm,Calm,-,N/A,,Clear,0,2013-07-12 13:53:00
7:53 AM,64.9,46.9,52,29.91,10.0,Calm,Calm,-,N/A,,Clear,0,2013-07-12 14:53:00
8:53 AM,68.0,41.0,37,29.91,10.0,South,3.5,-,N/A,,Clear,190,2013-07-12 15:53:00
9:53 AM,72.0,39.9,31,29.90,10.0,Variable,3.5,-,N/A,,Clear,0,2013-07-12 16:53:00
10:53 AM,73.9,39.0,28,29.90,10.0,Calm,Calm,-,N/A,,Clear,0,2013-07-12 17:53:00
11:53 AM,77.0,37.9,24,29.88,10.0,ESE,5.8,-,N/A,,Clear,110,2013-07-12 18:53:00
12:53 PM,79.0,37.0,22,29.88,10.0,WSW,5.8,-,N/A,,Clear,240,2013-07-12 19:53:00
1:53 PM,82.0,36.0,19,29.87,10.0,NNE,10.4,-,N/A,,Clear,20,2013-07-12 20:53:00
2:53 PM,82.9,37.0,19,29.86,10.0,Variable,3.5,-,N/A,,Clear,0,2013-07-12 21:53:00
3:53 PM,84.9,36.0,17,29.84,10.0,NNE,6.9,-,N/A,,Clear,20,2013-07-12 22:53:00
4:53 PM,82.9,37.9,20,29.83,10.0,Variable,6.9,-,N/A,,Clear,0,2013-07-12 23:53:00
5:53 PM,84.9,37.0,18,29.83,10.0,NNW,11.5,-,N/A,,Clear,330,2013-07-13 00:53:00
6:53 PM,80.1,46.9,31,29.84,10.0,North,12.7,-,N/A,,Clear,350,2013-07-13 01:53:00
7:53 PM,75.0,44.1,33,29.87,10.0,NNW,18.4,-,N/A,,Clear,340,2013-07-13 02:53:00
8:53 PM,68.0,44.1,42,29.90,10.0,NNW,10.4,-,N/A,,Clear,330,2013-07-13 03:53:00
9:53 PM,64.9,45.0,48,29.92,10.0,WNW,10.4,-,N/A,,Clear,300,2013-07-13 04:53:00
10:53 PM,64.0,42.1,45,29.94,10.0,NW,12.7,-,N/A,,Clear,310,2013-07-13 05:53:00
11:53 PM,62.1,41.0,46,29.98,10.0,NW,8.1,-,N/A,,Clear,320,2013-07-13 06:53:00